• In Uzbekistan
  • List of Countries
  • For 7 days
  • Water Temperature
  • Satellite Maps
  • Weather Map
  • Weather Widgets
  • user-avatar
    Login

    Hourly Weather Lubango

    Today, 20 February, Wednesday

    Time Temperature Precipitation Wind Pressure Humidity
    00:00 +16°C° 0 mm 0 mps 607 mmHg 77%
    01:00 +15°C° 0 mm 0 mps 607 mmHg 79%
    02:00 +15°C° 0 mm 0 mps 607 mmHg 78%
    03:00 +15°C° 0 mm 0 mps 607 mmHg 78%
    04:00 +15°C° 0 mm 0 mps 606 mmHg 78%
    05:00 +15°C° 0 mm 0 mps 607 mmHg 76%
    06:00 +18°C° 0 mm 1 mps 608 mmHg 74%
    07:00 +18°C° 0 mm 1 mps 608 mmHg 72%
    08:00 +21°C° 0.1 mm 1 mps 609 mmHg 63%
    09:00 +24°C° 0.1 mm 2 mps 610 mmHg 55%
    10:00 +26°C° 0.1 mm 2 mps 611 mmHg 46%
    11:00 +26°C° 0.1 mm 2 mps 611 mmHg 44%
    12:00 +26°C° 0.1 mm 2 mps 610 mmHg 43%
    13:00 +27°C° 0.1 mm 1 mps 610 mmHg 41%
    14:00 +26°C° 0.2 mm 1 mps 609 mmHg 46%
    15:00 +25°C° 0.2 mm 2 mps 609 mmHg 52%
    16:00 +24°C° 0.2 mm 2 mps 608 mmHg 57%
    17:00 +23°C° 0.3 mm 2 mps 608 mmHg 63%
    18:00 +20°C° 0.3 mm 2 mps 608 mmHg 70%
    19:00 +19°C° 0.3 mm 2 mps 608 mmHg 76%
    20:00 +19°C° 0.1 mm 1 mps 608 mmHg 79%
    21:00 +19°C° 0.1 mm 1 mps 608 mmHg 82%
    22:00 +18°C° 0.1 mm 1 mps 608 mmHg 84%
    23:00 +16°C° 0 mm 1 mps 608 mmHg 84%

    Tomorrow, 21 February, Thursday

    Time Temperature Precipitation Wind Pressure Humidity
    00:00 +16°C° 0 mm 1 mps 608 mmHg 84%
    01:00 +15°C° 0 mm 0 mps 608 mmHg 84%
    02:00 +15°C° 0 mm 0 mps 608 mmHg 83%
    03:00 +14°C° 0 mm 0 mps 608 mmHg 82%
    04:00 +14°C° 0 mm 0 mps 607 mmHg 81%
    05:00 +16°C° 0 mm 1 mps 608 mmHg 78%
    06:00 +16°C° 0 mm 1 mps 609 mmHg 75%
    07:00 +18°C° 0 mm 1 mps 609 mmHg 71%
    08:00 +21°C° 0 mm 1 mps 610 mmHg 60%
    09:00 +24°C° 0 mm 2 mps 612 mmHg 49%
    10:00 +27°C° 0 mm 2 mps 613 mmHg 38%
    11:00 +27°C° 0 mm 2 mps 612 mmHg 38%
    12:00 +27°C° 0 mm 2 mps 612 mmHg 38%
    13:00 +28°C° 0 mm 2 mps 611 mmHg 37%
    14:00 +26°C° 0.2 mm 2 mps 611 mmHg 44%
    15:00 +25°C° 0.2 mm 2 mps 610 mmHg 50%
    16:00 +24°C° 0.2 mm 2 mps 609 mmHg 56%
    17:00 +23°C° 0.6 mm 2 mps 609 mmHg 66%
    18:00 +20°C° 0.6 mm 2 mps 609 mmHg 76%
    19:00 +18°C° 0.6 mm 2 mps 609 mmHg 85%
    20:00 +19°C° 0.3 mm 1 mps 609 mmHg 89%
    21:00 +18°C° 0.3 mm 1 mps 610 mmHg 93%
    22:00 +18°C° 0.3 mm 1 mps 610 mmHg 96%
    23:00 +16°C° 0 mm 1 mps 610 mmHg 96%

    Day after tomorrow, 22 February, Friday

    Time Temperature Precipitation Wind Pressure Humidity
    00:00 +16°C° 0 mm 1 mps 610 mmHg 96%
    01:00 +16°C° 0 mm 1 mps 609 mmHg 97%
    02:00 +15°C° 0 mm 0 mps 609 mmHg 94%
    03:00 +15°C° 0 mm 0 mps 608 mmHg 92%
    04:00 +14°C° 0 mm 0 mps 608 mmHg 89%
    05:00 +15°C° 0 mm 0 mps 608 mmHg 86%
    06:00 +15°C° 0 mm 0 mps 609 mmHg 82%
    07:00 +16°C° 0 mm 0 mps 609 mmHg 79%
    08:00 +20°C° 0 mm 1 mps 611 mmHg 67%
    09:00 +23°C° 0 mm 1 mps 612 mmHg 55%
    10:00 +26°C° 0 mm 2 mps 613 mmHg 44%
    11:00 +26°C° 0 mm 2 mps 612 mmHg 42%
    12:00 +27°C° 0 mm 2 mps 612 mmHg 40%
    13:00 +27°C° 0 mm 2 mps 611 mmHg 38%
    14:00 +26°C° 0 mm 2 mps 610 mmHg 44%
    15:00 +24°C° 0 mm 1 mps 609 mmHg 49%
    16:00 +23°C° 0 mm 1 mps 608 mmHg 55%
    17:00 +22°C° 0 mm 1 mps 608 mmHg 58%
    18:00 +21°C° 0 mm 1 mps 608 mmHg 62%
    19:00 +20°C° 0 mm 1 mps 609 mmHg 66%
    20:00 +20°C° 0.1 mm 1 mps 609 mmHg 71%
    21:00 +19°C° 0.1 mm 1 mps 609 mmHg 76%
    22:00 +16°C° 0.1 mm 0 mps 610 mmHg 81%
    23:00 +16°C° 0 mm 0 mps 609 mmHg 84%

    23 February, Saturday

    Time Temperature Precipitation Wind Pressure Humidity
    00:00 +15°C° 0 mm 0 mps 609 mmHg 87%
    01:00 +14°C° 0 mm 0 mps 608 mmHg 90%
    02:00 +14°C° 0 mm 0 mps 608 mmHg 90%
    03:00 +15°C° 0 mm 1 mps 607 mmHg 89%
    04:00 +15°C° 0 mm 1 mps 607 mmHg 89%
    05:00 +14°C° 0 mm 0 mps 607 mmHg 85%
    06:00 +15°C° 0 mm 0 mps 608 mmHg 81%
    07:00 +16°C° 0 mm 0 mps 609 mmHg 77%
    08:00 +20°C° 0 mm 1 mps 610 mmHg 67%
    09:00 +23°C° 0 mm 1 mps 611 mmHg 57%
    10:00 +25°C° 0 mm 2 mps 612 mmHg 47%
    11:00 +25°C° 0 mm 2 mps 611 mmHg 46%
    12:00 +26°C° 0 mm 2 mps 610 mmHg 45%
    13:00 +26°C° 0 mm 2 mps 610 mmHg 44%
    14:00 +25°C° 0.1 mm 2 mps 609 mmHg 46%
    15:00 +25°C° 0.1 mm 1 mps 608 mmHg 47%
    16:00 +24°C° 0.1 mm 1 mps 607 mmHg 49%
    17:00 +23°C° 0 mm 1 mps 607 mmHg 52%
    18:00 +21°C° 0 mm 1 mps 607 mmHg 56%
    19:00 +20°C° 0 mm 1 mps 607 mmHg 60%
    20:00 +19°C° 0 mm 1 mps 607 mmHg 64%
    21:00 +19°C° 0 mm 1 mps 607 mmHg 67%
    22:00 +18°C° 0 mm 1 mps 608 mmHg 71%
    23:00 +18°C° 0 mm 1 mps 607 mmHg 72%

    24 February, Sunday

    Time Temperature Precipitation Wind Pressure Humidity
    00:00 +16°C° 0 mm 1 mps 607 mmHg 72%
    01:00 +16°C° 0 mm 1 mps 606 mmHg 73%
    02:00 +16°C° 0 mm 1 mps 606 mmHg 73%
    03:00 +16°C° 0 mm 1 mps 606 mmHg 73%
    04:00 +16°C° 0 mm 1 mps 605 mmHg 73%
    05:00 +16°C° 0 mm 1 mps 606 mmHg 71%
    06:00 +16°C° 0 mm 1 mps 606 mmHg 69%
    07:00 +18°C° 0 mm 1 mps 607 mmHg 68%
    08:00 +20°C° 0 mm 2 mps 608 mmHg 57%
    09:00 +24°C° 0 mm 2 mps 610 mmHg 46%
    10:00 +28°C° 0 mm 2 mps 611 mmHg 35%
    11:00 +28°C° 0 mm 2 mps 610 mmHg 36%
    12:00 +28°C° 0 mm 2 mps 610 mmHg 36%
    13:00 +28°C° 0 mm 2 mps 609 mmHg 36%
    14:00 +27°C° 0 mm 2 mps 608 mmHg 40%
    15:00 +26°C° 0 mm 2 mps 607 mmHg 44%
    16:00 +25°C° 0 mm 1 mps 607 mmHg 48%
    17:00 +23°C° 0 mm 1 mps 607 mmHg 55%
    18:00 +22°C° 0 mm 1 mps 606 mmHg 63%
    19:00 +20°C° 0 mm 1 mps 606 mmHg 70%
    20:00 +19°C° 0.1 mm 1 mps 607 mmHg 74%
    21:00 +18°C° 0.1 mm 1 mps 607 mmHg 78%
    22:00 +16°C° 0.1 mm 1 mps 607 mmHg 82%
    23:00 +16°C° 0 mm 1 mps 607 mmHg 82%

    25 February, Monday

    Time Temperature Precipitation Wind Pressure Humidity
    00:00 +16°C° 0 mm 1 mps 606 mmHg 83%
    01:00 +15°C° 0 mm 1 mps 606 mmHg 84%
    02:00 +15°C° 0 mm 1 mps 606 mmHg 83%
    03:00 +15°C° 0 mm 1 mps 606 mmHg 82%
    04:00 +15°C° 0 mm 1 mps 606 mmHg 81%
    05:00 +16°C° 0 mm 1 mps 606 mmHg 79%
    06:00 +15°C° 0 mm 0 mps 607 mmHg 76%
    07:00 +16°C° 0 mm 0 mps 608 mmHg 74%
    08:00 +21°C° 0 mm 1 mps 609 mmHg 63%
    09:00 +24°C° 0 mm 1 mps 610 mmHg 53%
    10:00 +27°C° 0 mm 1 mps 611 mmHg 42%
    11:00 +27°C° 0 mm 1 mps 610 mmHg 43%
    12:00 +27°C° 0 mm 1 mps 610 mmHg 43%
    13:00 +26°C° 0 mm 1 mps 609 mmHg 43%
    14:00 +25°C° 0.4 mm 1 mps 608 mmHg 50%
    15:00 +23°C° 0.4 mm 1 mps 607 mmHg 57%
    16:00 +21°C° 0.4 mm 1 mps 606 mmHg 64%
    17:00 +21°C° 0 mm 1 mps 606 mmHg 66%
    18:00 +19°C° 0 mm 2 mps 607 mmHg 67%
    19:00 +19°C° 0 mm 2 mps 607 mmHg 68%
    20:00 +18°C° 0.2 mm 2 mps 607 mmHg 71%
    21:00 +17°C° 0.2 mm 2 mps 608 mmHg 75%
    22:00 +18°C° 0.2 mm 1 mps 608 mmHg 78%
    23:00 +16°C° 0.3 mm 1 mps 607 mmHg 79%
    Show more